This is the latest recevied weather packets stored in our database for station/object KK4MOR. If no packets are shown the sender has not sent any weather packets the latest 10 day(s).
| Time | Temp. | Humidity | Pressure | Rain* | Wind** | Luminosity | Snow |
|---|---|---|---|---|---|---|---|
| 1777965346 | 14.44° C | 76% | 1009.7 hPa | 0 mm | - | - | - |
| 1777964431 | 14.44° C | 76% | 1009.8 hPa | 0 mm | - | - | - |
| 1777963530 | 14.44° C | 77% | 1010 hPa | 0 mm | - | - | - |
| 1777962628 | 13.89° C | 77% | 1010 hPa | 0 mm | - | - | - |
| 1777961726 | 13.89° C | 78% | 1010.2 hPa | 0 mm | - | - | - |
| 1777960824 | 14.44° C | 76% | 1010.2 hPa | 0 mm | - | - | - |
| 1777959926 | 15° C | 73% | 1010.3 hPa | 0 mm | - | - | - |
| 1777959027 | 15° C | 72% | 1010.4 hPa | 0 mm | - | - | - |
| 1777958127 | 15° C | 71% | 1010.3 hPa | 0 mm | - | - | - |
| 1777957224 | 15.56° C | 70% | 1010.4 hPa | 0 mm | - | - | - |
| 1777956312 | 16.11° C | 67% | 1010.3 hPa | 0 mm | - | - | - |
| 1777955412 | 16.67° C | 65% | 1010.1 hPa | 0 mm | - | - | - |
| 1777954515 | 17.22° C | 63% | 1010 hPa | 0 mm | - | - | - |
| 1777953611 | 17.78° C | 62% | 1010 hPa | 0 mm | - | - | - |
| 1777952710 | 17.22° C | 63% | 1010.1 hPa | 0 mm | - | - | - |
| 1777951811 | 17.78° C | 62% | 1010.1 hPa | 0 mm | - | - | - |
| 1777950909 | 17.78° C | 61% | 1010.3 hPa | 0 mm | - | - | - |
| 1777950021 | 18.33° C | 61% | 1010.3 hPa | 0 mm | - | - | - |
| 1777949111 | 18.33° C | 61% | 1010.2 hPa | 0 mm | - | - | - |
| 1777948207 | 18.33° C | 60% | 1010.3 hPa | 0 mm | - | - | - |
| 1777947308 | 18.33° C | 60% | 1010.2 hPa | 0 mm | - | - | - |
| 1777946407 | 18.33° C | 60% | 1010.1 hPa | 0 mm | - | - | - |
| 1777945507 | 18.89° C | 58% | 1010.1 hPa | 0 mm | - | - | - |
| 1777944606 | 18.89° C | 58% | 1009.9 hPa | 0 mm | - | - | - |
| 1777943709 | 19.44° C | 57% | 1009.9 hPa | 0 mm | - | - | - |
* Rain latest hour (hover to see other rain measurements)
** Current wind speed in m/s (hover to see current wind gust speed)